DLH3MK LFPG-EGLL

Flight info

Callsign DLH3MK
Flight time 0h 43m
Altitude 24000
Route OPALE DCT KESAX DCT DIMAL DCT ALESO
Aircraft A20N/M-SDE2E3FGHIRWXY/LB1

Departure

Time 2026-05-08 21:47
Airport Charles de Gaulle International Airport (LFPG)

Arrival

Time 2026-05-08 22:30
Airport London Heathrow Airport (EGLL)
Time Latitude Longitude Altitude Speed Heading
2026-05-08 21:23 49.01396 2.53804 354 ft 0 kts 74°
2026-05-08 21:38 49.01394 2.53792 354 ft 2 kts 74°
2026-05-08 21:38 49.01390 2.53774 360 ft 2 kts 74°
2026-05-08 21:38 49.01386 2.53748 357 ft 3 kts 74°
2026-05-08 21:38 49.01380 2.53716 357 ft 3 kts 79°
2026-05-08 21:39 49.01376 2.53682 354 ft 4 kts 78°
2026-05-08 21:39 49.01365 2.53641 364 ft 5 kts 39°
2026-05-08 21:39 49.01342 2.53631 359 ft 0 kts 347°
2026-05-08 21:41 49.01351 2.53628 360 ft 4 kts 347°
2026-05-08 21:42 49.01390 2.53615 357 ft 8 kts 348°
2026-05-08 21:42 49.01453 2.53608 354 ft 11 kts
2026-05-08 21:42 49.01537 2.53610 358 ft 13 kts 357°
2026-05-08 21:42 49.01629 2.53562 355 ft 15 kts 324°
2026-05-08 21:43 49.01679 2.53421 360 ft 16 kts 276°
2026-05-08 21:43 49.01672 2.53237 359 ft 19 kts 266°
2026-05-08 21:43 49.01661 2.53027 355 ft 21 kts 265°
2026-05-08 21:43 49.01694 2.52820 355 ft 21 kts 315°
2026-05-08 21:44 49.01802 2.52686 356 ft 21 kts 300°
2026-05-08 21:44 49.01810 2.52477 357 ft 19 kts 264°
2026-05-08 21:44 49.01881 2.52352 359 ft 18 kts 350°
2026-05-08 21:44 49.02006 2.52339 363 ft 15 kts 356°
2026-05-08 21:45 49.02014 2.52338 362 ft 0 kts 355°
2026-05-08 21:45 49.02027 2.52337 360 ft 5 kts 355°
2026-05-08 21:46 49.02083 2.52341 354 ft 10 kts 17°
2026-05-08 21:46 49.02125 2.52430 357 ft 12 kts 84°
2026-05-08 21:46 49.02151 2.52904 362 ft 89 kts 85°
2026-05-08 21:46 49.02223 2.54255 370 ft 161 kts 85°
2026-05-08 21:47 49.02301 2.56032 1094 ft 169 kts 85°
2026-05-08 21:47 49.02386 2.57773 2216 ft 167 kts 85°
2026-05-08 21:47 49.02485 2.59633 2933 ft 186 kts 85°
2026-05-08 21:47 49.02603 2.61746 3444 ft 212 kts 85°
2026-05-08 21:48 49.02736 2.64097 4071 ft 234 kts 85°
2026-05-08 21:48 49.02887 2.66692 4701 ft 257 kts 85°
2026-05-08 21:48 49.03039 2.69466 5556 ft 267 kts 86°
2026-05-08 21:48 49.03192 2.72343 6455 ft 277 kts 84°
2026-05-08 21:49 49.03780 2.75151 7386 ft 283 kts 58°
2026-05-08 21:49 49.05142 2.77327 8327 ft 287 kts 31°
2026-05-08 21:49 49.06983 2.78421 9281 ft 291 kts 12°
2026-05-08 21:49 49.08873 2.79590 10127 ft 298 kts 31°
2026-05-08 21:50 49.10657 2.81337 10739 ft 316 kts 32°
2026-05-08 21:50 49.12571 2.83230 11099 ft 339 kts 32°
2026-05-08 21:50 49.14599 2.85233 11712 ft 351 kts 32°
2026-05-08 21:50 49.16706 2.87147 12592 ft 354 kts 22°
2026-05-08 21:51 49.19092 2.88006 13448 ft 355 kts
2026-05-08 21:51 49.21536 2.87500 14243 ft 356 kts 339°
2026-05-08 21:51 49.23678 2.85732 15007 ft 356 kts 320°
2026-05-08 21:51 49.25513 2.83176 15771 ft 359 kts 314°
2026-05-08 21:52 49.27277 2.80442 16534 ft 363 kts 313°
2026-05-08 21:52 49.29084 2.77651 17074 ft 373 kts 314°
2026-05-08 21:52 49.30947 2.74857 17829 ft 377 kts 315°
2026-05-08 21:52 49.32857 2.72057 18523 ft 381 kts 316°
2026-05-08 21:53 49.34789 2.69261 19231 ft 383 kts 316°
2026-05-08 21:53 49.36731 2.66462 19998 ft 382 kts 316°
2026-05-08 21:53 49.38673 2.63666 20689 ft 384 kts 316°
2026-05-08 21:53 49.40633 2.60837 21324 ft 388 kts 316°
2026-05-08 21:54 49.42604 2.57989 21987 ft 390 kts 316°
2026-05-08 21:54 49.44588 2.55119 22636 ft 393 kts 316°
2026-05-08 21:54 49.46556 2.52267 23268 ft 396 kts 317°
2026-05-08 21:54 49.48567 2.49350 23811 ft 399 kts 317°
2026-05-08 21:55 49.50597 2.46402 24025 ft 400 kts 317°
2026-05-08 21:55 49.52614 2.43469 24086 ft 399 kts 317°
2026-05-08 21:55 49.54632 2.40531 24093 ft 399 kts 317°
2026-05-08 21:56 49.58673 2.34641 24092 ft 399 kts 317°
2026-05-08 21:56 49.60708 2.31673 24093 ft 410 kts 317°
2026-05-08 21:56 49.62832 2.28571 24091 ft 427 kts 316°
2026-05-08 21:56 49.65027 2.25358 24093 ft 443 kts 316°
2026-05-08 21:57 49.67271 2.22068 24091 ft 456 kts 316°
2026-05-08 21:57 49.69577 2.18680 24091 ft 458 kts 316°
2026-05-08 21:57 49.71883 2.15288 24090 ft 457 kts 316°
2026-05-08 21:57 49.74214 2.11854 24089 ft 456 kts 316°
2026-05-08 21:58 49.76482 2.08508 24086 ft 456 kts 316°
2026-05-08 21:58 49.78808 2.05073 24086 ft 457 kts 316°
2026-05-08 21:58 49.81079 2.01714 24085 ft 457 kts 316°
2026-05-08 21:58 49.83380 1.98306 24088 ft 457 kts 316°
2026-05-08 21:59 49.85670 1.94909 24088 ft 457 kts 316°
2026-05-08 21:59 49.87965 1.91501 24091 ft 457 kts 316°
2026-05-08 21:59 49.90287 1.88137 24092 ft 457 kts 320°
2026-05-08 21:59 49.92768 1.85063 24092 ft 457 kts 322°
2026-05-08 22:00 49.95259 1.82009 24095 ft 456 kts 321°
2026-05-08 22:00 49.97762 1.78931 24097 ft 460 kts 321°
2026-05-08 22:00 50.00240 1.75876 24094 ft 459 kts 321°
2026-05-08 22:00 50.02745 1.72781 24098 ft 459 kts 321°
2026-05-08 22:01 50.05255 1.69712 24098 ft 459 kts 323°
2026-05-08 22:01 50.07934 1.66993 24095 ft 460 kts 330°
2026-05-08 22:01 50.10794 1.64742 24096 ft 460 kts 335°
2026-05-08 22:01 50.13703 1.62655 24094 ft 460 kts 335°
2026-05-08 22:02 50.16606 1.60542 24100 ft 460 kts 334°
2026-05-08 22:02 50.19505 1.58427 24104 ft 460 kts 334°
2026-05-08 22:02 50.22407 1.56309 24101 ft 459 kts 334°
2026-05-08 22:02 50.25294 1.54192 24099 ft 459 kts 333°
2026-05-08 22:03 50.27964 1.51557 24095 ft 446 kts 321°
2026-05-08 22:03 50.30272 1.48491 24098 ft 425 kts 319°
2026-05-08 22:03 50.32463 1.45553 24101 ft 404 kts 319°
2026-05-08 22:03 50.34572 1.42725 24103 ft 401 kts 319°
2026-05-08 22:04 50.36710 1.39855 24102 ft 407 kts 319°
2026-05-08 22:04 50.38855 1.36977 24102 ft 405 kts 318°
2026-05-08 22:04 50.41001 1.34094 24103 ft 408 kts 318°
2026-05-08 22:04 50.43153 1.31196 24102 ft 408 kts 318°
2026-05-08 22:05 50.45267 1.28349 24106 ft 404 kts 318°
2026-05-08 22:05 50.47413 1.25453 24105 ft 408 kts 319°
2026-05-08 22:05 50.49564 1.22547 24109 ft 407 kts 318°
2026-05-08 22:05 50.51709 1.19647 24112 ft 406 kts 318°
2026-05-08 22:06 50.53846 1.16752 24108 ft 406 kts 318°
2026-05-08 22:06 50.55990 1.13842 24111 ft 406 kts 318°
2026-05-08 22:06 50.58128 1.10939 23974 ft 405 kts 318°
2026-05-08 22:06 50.60255 1.08046 23749 ft 404 kts 318°
2026-05-08 22:07 50.62387 1.05141 23486 ft 406 kts 318°
2026-05-08 22:07 50.64518 1.02237 23220 ft 403 kts 318°
2026-05-08 22:07 50.66631 0.99352 22950 ft 402 kts 318°
2026-05-08 22:07 50.68747 0.96460 22686 ft 402 kts 318°
2026-05-08 22:08 50.70863 0.93566 22254 ft 402 kts 317°
2026-05-08 22:08 50.72973 0.90673 21689 ft 401 kts 317°
2026-05-08 22:08 50.75069 0.87797 21130 ft 397 kts 317°
2026-05-08 22:08 50.77147 0.84945 20579 ft 393 kts 317°
2026-05-08 22:09 50.79204 0.82118 20020 ft 390 kts 317°
2026-05-08 22:09 50.81211 0.79355 19485 ft 386 kts 317°
2026-05-08 22:09 50.83230 0.76572 18933 ft 384 kts 317°
2026-05-08 22:09 50.85236 0.73804 18351 ft 382 kts 317°
2026-05-08 22:10 50.87227 0.71053 17803 ft 378 kts 317°
2026-05-08 22:10 50.89195 0.68330 17273 ft 373 kts 317°
2026-05-08 22:10 50.91144 0.65631 16755 ft 370 kts 317°
2026-05-08 22:10 50.93074 0.62954 16233 ft 366 kts 317°
2026-05-08 22:11 50.94983 0.60303 15719 ft 363 kts 317°
2026-05-08 22:11 50.96849 0.57710 15220 ft 360 kts 317°
2026-05-08 22:11 50.98721 0.55105 14714 ft 357 kts 317°
2026-05-08 22:11 51.00581 0.52514 14218 ft 354 kts 317°
2026-05-08 22:12 51.02421 0.49947 13688 ft 351 kts 317°
2026-05-08 22:12 51.04250 0.47393 13199 ft 347 kts 317°
2026-05-08 22:12 51.06047 0.44884 12711 ft 342 kts 317°
2026-05-08 22:12 51.07781 0.42313 12229 ft 338 kts 314°
2026-05-08 22:13 51.09465 0.39729 11761 ft 335 kts 315°
2026-05-08 22:13 51.11141 0.37182 11274 ft 331 kts 315°
2026-05-08 22:13 51.12801 0.34658 10803 ft 329 kts 315°
2026-05-08 22:13 51.14438 0.32165 10535 ft 319 kts 315°
2026-05-08 22:14 51.16009 0.29767 10408 ft 305 kts 315°
2026-05-08 22:14 51.17493 0.27498 10243 ft 294 kts 315°
2026-05-08 22:14 51.18960 0.25251 9890 ft 290 kts 315°
2026-05-08 22:14 51.20388 0.23058 9754 ft 284 kts 315°
2026-05-08 22:15 51.21831 0.20840 9421 ft 290 kts 315°
2026-05-08 22:15 51.23292 0.18593 9037 ft 291 kts 315°
2026-05-08 22:15 51.24738 0.16356 8657 ft 288 kts 312°
2026-05-08 22:15 51.25772 0.13694 8339 ft 280 kts 286°
2026-05-08 22:16 51.26215 0.10708 8202 ft 278 kts 281°
2026-05-08 22:16 51.26619 0.07659 8168 ft 280 kts 281°
2026-05-08 22:16 51.27014 0.04627 8163 ft 279 kts 281°
2026-05-08 22:16 51.27408 0.01587 8157 ft 279 kts 281°
2026-05-08 22:17 51.27803 -0.01448 8134 ft 279 kts 281°
2026-05-08 22:17 51.28209 -0.04488 8131 ft 280 kts 281°
2026-05-08 22:17 51.28618 -0.07527 8119 ft 278 kts 281°
2026-05-08 22:17 51.29018 -0.10514 8064 ft 271 kts 281°
2026-05-08 22:18 51.29276 -0.12437 8006 ft 264 kts 281°
2026-05-08 22:18 51.29773 -0.16130 7870 ft 249 kts 281°
2026-05-08 22:18 51.30133 -0.18806 7615 ft 245 kts 281°
2026-05-08 22:18 51.30489 -0.21462 7302 ft 244 kts 281°
2026-05-08 22:19 51.30839 -0.24093 7154 ft 242 kts 281°
2026-05-08 22:19 51.31078 -0.25897 7129 ft 245 kts 281°
2026-05-08 22:19 51.31429 -0.28555 7120 ft 244 kts 281°
2026-05-08 22:19 51.31777 -0.31189 7127 ft 244 kts 281°
2026-05-08 22:20 51.32128 -0.33850 7133 ft 244 kts 281°
2026-05-08 22:20 51.32479 -0.36510 7135 ft 245 kts 281°
2026-05-08 22:20 51.32830 -0.39165 7124 ft 244 kts 281°
2026-05-08 22:20 51.33187 -0.41887 7138 ft 260 kts 281°
2026-05-08 22:21 51.33559 -0.44730 7124 ft 261 kts 281°
2026-05-08 22:21 51.33933 -0.47588 7122 ft 262 kts 281°
2026-05-08 22:21 51.34305 -0.50445 7129 ft 262 kts 281°
2026-05-08 22:21 51.34678 -0.53301 7130 ft 262 kts 281°
2026-05-08 22:22 51.35050 -0.56142 7051 ft 259 kts 281°
2026-05-08 22:22 51.35412 -0.58902 6967 ft 248 kts 281°
2026-05-08 22:22 51.35761 -0.61569 6656 ft 244 kts 281°
2026-05-08 22:22 51.36109 -0.64226 6251 ft 244 kts 281°
2026-05-08 22:23 51.36454 -0.66877 5846 ft 244 kts 281°
2026-05-08 22:23 51.36800 -0.69535 5508 ft 244 kts 281°
2026-05-08 22:23 51.37144 -0.72188 5214 ft 243 kts 281°
2026-05-08 22:23 51.37487 -0.74836 4911 ft 242 kts 281°
2026-05-08 22:24 51.37825 -0.77439 4593 ft 242 kts 282°
2026-05-08 22:24 51.38546 -0.79840 4275 ft 241 kts 312°
2026-05-08 22:24 51.39901 -0.81256 4092 ft 229 kts 346°
2026-05-08 22:24 51.41429 -0.81505 3988 ft 215 kts
2026-05-08 22:25 51.42883 -0.81554 3894 ft 204 kts
2026-05-08 22:25 51.44266 -0.81537 3756 ft 194 kts 13°
2026-05-08 22:25 51.45418 -0.80569 3469 ft 188 kts 52°
2026-05-08 22:25 51.46154 -0.78861 3206 ft 186 kts 60°
2026-05-08 22:26 51.46828 -0.77105 3003 ft 182 kts 62°
2026-05-08 22:26 51.47358 -0.75262 2939 ft 185 kts 75°
2026-05-08 22:26 51.47589 -0.73288 2852 ft 182 kts 86°
2026-05-08 22:26 51.47656 -0.71268 2772 ft 181 kts 90°
2026-05-08 22:27 51.47671 -0.69242 2610 ft 181 kts 90°
2026-05-08 22:27 51.47680 -0.67244 2434 ft 175 kts 91°
2026-05-08 22:27 51.47687 -0.65313 2184 ft 170 kts 91°
2026-05-08 22:27 51.47695 -0.63450 1951 ft 164 kts 91°
2026-05-08 22:28 51.47701 -0.61655 1732 ft 156 kts 91°
2026-05-08 22:28 51.47707 -0.59957 1534 ft 153 kts 91°
2026-05-08 22:28 51.47713 -0.58295 1318 ft 141 kts 91°
2026-05-08 22:28 51.47719 -0.56786 1140 ft 131 kts 91°
2026-05-08 22:29 51.47724 -0.55369 963 ft 125 kts 90°
2026-05-08 22:29 51.47729 -0.53984 796 ft 126 kts 90°
2026-05-08 22:29 51.47732 -0.52586 648 ft 125 kts 90°
2026-05-08 22:29 51.47743 -0.51177 442 ft 126 kts 90°
2026-05-08 22:30 51.47748 -0.49780 264 ft 123 kts 88°
2026-05-08 22:30 51.47751 -0.48392 124 ft 124 kts 90°
2026-05-08 22:30 51.47754 -0.47112 88 ft 102 kts 89°
2026-05-08 22:30 51.47757 -0.46308 92 ft 28 kts 88°
2026-05-08 22:31 51.47662 -0.46098 89 ft 5 kts 144°
2026-05-08 22:31 51.47662 -0.46097 89 ft 1 kts 144°
2026-05-08 22:32 51.47619 -0.46047 84 ft 11 kts 141°
2026-05-08 22:32 51.47594 -0.45922 85 ft 14 kts 88°
2026-05-08 22:32 51.47597 -0.45752 85 ft 17 kts 89°
2026-05-08 22:32 51.47598 -0.45552 84 ft 19 kts 91°
2026-05-08 22:33 51.47598 -0.45334 87 ft 20 kts 89°
2026-05-08 22:33 51.47599 -0.45107 88 ft 21 kts 90°
2026-05-08 22:33 51.47601 -0.44879 90 ft 18 kts 89°
2026-05-08 22:33 51.47602 -0.44712 89 ft 12 kts 96°
2026-05-08 22:34 51.47539 -0.44657 85 ft 14 kts 168°
2026-05-08 22:34 51.47483 -0.44570 90 ft 10 kts 145°
2026-05-08 22:34 51.47401 -0.44557 85 ft 14 kts 179°
2026-05-08 22:34 51.47292 -0.44558 85 ft 17 kts 180°
2026-05-08 22:35 51.47162 -0.44557 85 ft 20 kts 180°
2026-05-08 22:35 51.47023 -0.44556 85 ft 19 kts 180°
2026-05-08 22:35 51.46912 -0.44558 85 ft 13 kts 181°
2026-05-08 22:35 51.46875 -0.44559 85 ft 4 kts 183°
2026-05-08 22:36 51.46859 -0.44604 87 ft 6 kts 272°
2026-05-08 22:36 51.46858 -0.44681 85 ft 0 kts 266°